{"data":{"norad_id":58720,"intl_designator":"2024-002R","name":"STARLINK-31027","alt_names":[],"object_type":"PAYLOAD","status":"ACTIVE","operator":null,"country":"US","launch_date":"2024-01-03","launch_site_code":"AFWTR","launch_vehicle":null,"mission":null,"orbit_class":"UNKNOWN","rcs_meters":null,"size_class":null,"mass_kg":null,"dimensions":null,"purposes":["comms"],"wikipedia_slug":null,"has_3d_model":false,"image_url":null,"decayed_at":null,"tle_current":{"epoch":"2026-05-25T05:09:10.122336Z","epoch_age_seconds":49659,"freshness":"FRESH","line1":"1 58720U 24002R   26145.21470049  .00074591  00000+0  67771-3 0  9991","line2":"2 58720  53.1420 214.9112 0007251 273.6177  86.4011 15.67308684134003","mean_motion":15.67308684,"eccentricity":0.0007251,"inclination_deg":53.142,"raan_deg":214.9112,"arg_perigee_deg":273.6177,"mean_anomaly_deg":86.4011,"bstar":0.00067771,"rev_number":13400,"period_min":91.87724247944,"perigee_km":361.716555677,"apogee_km":371.49778367186,"semimajor_km":6744.7441696744,"source":"CELESTRAK","updated_at":"2026-05-25T13:38:18.717850Z"}}}